CLX604 ELLX-HKJK

Flight info

Callsign CLX604
Flight time N/A
Altitude 37000
Route GTQ2Q GTQ DCT DEVDI DCT RIPUS DCT RESIA DCT ERITU DCT LATAN DCT SALUN N705 MMA P751 DASUM Y234 EGTIP/N0486F390 Y234 FYM M872 SEMRU A727 NABED T55 DEDLU M999 MUVOL/N0491F400 DCT RASKA DCT DULAB DCT ULONI DCT IMDAX DCT ASM DCT KONET/M084F400 UM308 RUDOL/N0488F400 DCT LOTAS LOTAS2P
Aircraft B744/H-SDE1E3FGHIJ3J5J6M1P2RTWXYZ/LB2D1

Departure

Time N/A
Airport Luxembourg-Findel International Airport (ELLX)

Arrival

Time 2026-05-04 00:39
Airport Jomo Kenyatta International Airport (HKJK)
Time Latitude Longitude Altitude Speed Heading
2026-05-03 20:15 30.22951 29.03396 37096 ft 565 kts 134°
2026-05-03 20:15 30.18383 29.10785 37095 ft 566 kts 133°
2026-05-03 20:16 30.13823 29.18173 37094 ft 566 kts 134°
2026-05-03 20:16 30.09299 29.25598 37098 ft 566 kts 133°
2026-05-03 20:17 30.04773 29.33081 37098 ft 566 kts 133°
2026-05-03 20:17 30.00266 29.40511 37098 ft 566 kts 133°
2026-05-03 20:18 29.95756 29.47928 37097 ft 565 kts 133°
2026-05-03 20:18 29.91268 29.55331 37097 ft 564 kts 133°
2026-05-03 20:19 29.86793 29.62735 37097 ft 564 kts 134°
2026-05-03 20:19 29.82296 29.70126 37097 ft 564 kts 134°
2026-05-03 20:20 29.77765 29.77552 37098 ft 564 kts 134°
2026-05-03 20:20 29.75509 29.81242 37248 ft 565 kts 134°
2026-05-03 20:20 29.73252 29.84932 37484 ft 565 kts 134°
2026-05-03 20:20 29.70999 29.88611 37722 ft 564 kts 134°
2026-05-03 20:21 29.68742 29.92293 37959 ft 564 kts 134°
2026-05-03 20:21 29.66484 29.95974 38177 ft 563 kts 134°
2026-05-03 20:21 29.64230 29.99645 38385 ft 563 kts 134°
2026-05-03 20:21 29.61973 30.03318 38553 ft 563 kts 134°
2026-05-03 20:22 29.59716 30.06986 38752 ft 563 kts 134°
2026-05-03 20:22 29.57467 30.10654 38928 ft 563 kts 133°
2026-05-03 20:22 29.55222 30.14324 39056 ft 562 kts 134°
2026-05-03 20:23 29.50706 30.21638 39090 ft 562 kts 134°
2026-05-03 20:23 29.46162 30.28971 39090 ft 560 kts 134°
2026-05-03 20:24 29.41658 30.36233 39090 ft 560 kts 134°
2026-05-03 20:24 29.36782 30.43062 39091 ft 550 kts 142°
2026-05-03 20:25 29.31487 30.49289 39091 ft 544 kts 144°
2026-05-03 20:25 29.26178 30.55501 39091 ft 542 kts 144°
2026-05-03 20:26 29.20946 30.61689 39092 ft 542 kts 144°
2026-05-03 20:26 29.15717 30.67883 39093 ft 542 kts 144°
2026-05-03 20:27 29.10518 30.74091 39094 ft 540 kts 144°
2026-05-03 20:27 29.05316 30.80272 39095 ft 541 kts 144°
2026-05-03 20:28 29.00109 30.86450 39095 ft 540 kts 144°
2026-05-03 20:28 28.94917 30.92606 39097 ft 539 kts 144°
2026-05-03 20:29 28.89695 30.98790 39098 ft 538 kts 144°
2026-05-03 20:29 28.84501 31.04932 39080 ft 538 kts 144°
2026-05-03 20:30 28.79319 31.11051 39075 ft 537 kts 144°
2026-05-03 20:30 28.74139 31.17160 39075 ft 537 kts 144°
2026-05-03 20:31 28.68952 31.23267 39076 ft 537 kts 144°
2026-05-03 20:31 28.63778 31.29349 39075 ft 535 kts 144°
2026-05-03 20:32 28.58570 31.35463 39073 ft 535 kts 144°
2026-05-03 20:32 28.53396 31.41526 39070 ft 534 kts 144°
2026-05-03 20:33 28.48228 31.47574 39069 ft 533 kts 144°
2026-05-03 20:33 28.43069 31.53602 39069 ft 533 kts 144°
2026-05-03 20:34 28.37902 31.59632 39067 ft 532 kts 144°
2026-05-03 20:34 28.32746 31.65638 39066 ft 532 kts 144°
2026-05-03 20:35 28.27592 31.71635 39065 ft 532 kts 144°
2026-05-03 20:35 28.22405 31.77678 39063 ft 531 kts 144°
2026-05-03 20:36 28.17263 31.83654 39041 ft 530 kts 144°
2026-05-03 20:36 28.12109 31.89613 39038 ft 530 kts 144°
2026-05-03 20:37 28.06956 31.95564 39034 ft 530 kts 144°
2026-05-03 20:37 28.01468 32.00813 39032 ft 497 kts 163°
2026-05-03 20:38 27.95241 32.03855 39032 ft 485 kts 172°
2026-05-03 20:38 27.88803 32.06021 39030 ft 481 kts 176°
2026-05-03 20:39 27.83414 32.07659 39030 ft 479 kts 176°
2026-05-03 20:39 27.77014 32.09667 39031 ft 478 kts 175°
2026-05-03 20:40 27.70609 32.11700 39032 ft 479 kts 175°
2026-05-03 20:40 27.64195 32.13749 39032 ft 480 kts 175°
2026-05-03 20:41 27.57744 32.15810 39032 ft 480 kts 175°
2026-05-03 20:41 27.51328 32.17855 39032 ft 480 kts 175°
2026-05-03 20:42 27.44911 32.19891 39032 ft 480 kts 175°
2026-05-03 20:42 27.38501 32.21922 39031 ft 480 kts 175°
2026-05-03 20:43 27.32087 32.23973 39026 ft 484 kts 173°
2026-05-03 20:43 27.29000 32.25668 39019 ft 508 kts 157°
2026-05-03 20:43 27.26200 32.28185 39011 ft 523 kts 148°
2026-05-03 20:44 27.21176 32.34253 39017 ft 533 kts 139°
2026-05-03 20:44 27.16522 32.40791 39007 ft 539 kts 138°
2026-05-03 20:45 27.11803 32.47306 39013 ft 538 kts 139°
2026-05-03 20:45 27.07046 32.53772 39007 ft 537 kts 139°
2026-05-03 20:46 27.02301 32.60242 38994 ft 537 kts 139°
2026-05-03 20:46 26.97550 32.66688 38988 ft 537 kts 139°
2026-05-03 20:47 26.92783 32.73131 38980 ft 537 kts 139°
2026-05-03 20:47 26.87981 32.79606 38974 ft 537 kts 139°
2026-05-03 20:48 26.83209 32.86031 38970 ft 537 kts 139°
2026-05-03 20:48 26.78436 32.92448 38967 ft 537 kts 139°
2026-05-03 20:49 26.73654 32.98866 38965 ft 537 kts 139°
2026-05-03 20:49 26.68887 33.05257 38962 ft 536 kts 140°
2026-05-03 20:50 26.64116 33.11643 38960 ft 536 kts 140°
2026-05-03 20:50 26.59317 33.18089 38958 ft 536 kts 140°
2026-05-03 20:51 26.54536 33.24466 38957 ft 536 kts 140°
2026-05-03 20:51 26.49749 33.30834 38957 ft 536 kts 140°
2026-05-03 20:52 26.44964 33.37194 38956 ft 536 kts 140°
2026-05-03 20:52 26.40176 33.43554 38955 ft 536 kts 140°
2026-05-03 20:53 26.35375 33.49911 38955 ft 536 kts 140°
2026-05-03 20:53 26.30584 33.56247 38955 ft 535 kts 140°
2026-05-03 20:54 26.25767 33.62611 38954 ft 535 kts 140°
2026-05-03 20:54 26.18590 33.72099 38943 ft 535 kts 140°
2026-05-03 20:55 26.13809 33.78434 38940 ft 535 kts 140°
2026-05-03 20:55 26.09022 33.84751 38939 ft 535 kts 140°
2026-05-03 20:56 26.04233 33.91078 38939 ft 535 kts 140°
2026-05-03 20:56 25.99401 33.97418 38939 ft 535 kts 140°
2026-05-03 20:57 25.94593 34.03714 38938 ft 535 kts 140°
2026-05-03 20:57 25.89790 34.09998 38938 ft 535 kts 140°
2026-05-03 20:58 25.84983 34.16283 38937 ft 535 kts 140°
2026-05-03 20:58 25.80170 34.22558 38936 ft 534 kts 140°
2026-05-03 20:59 25.75371 34.28835 38936 ft 535 kts 140°
2026-05-03 20:59 25.70574 34.35112 38935 ft 533 kts 140°
2026-05-03 21:00 25.66557 34.40333 38935 ft 532 kts 140°
2026-05-03 21:00 25.60951 34.47607 38934 ft 532 kts 140°
2026-05-03 21:01 25.56147 34.53818 38934 ft 530 kts 141°
2026-05-03 21:01 25.51047 34.59618 38935 ft 523 kts 146°
2026-05-03 21:02 25.45839 34.65210 38934 ft 521 kts 146°
2026-05-03 21:02 25.40678 34.70819 38934 ft 521 kts 145°
2026-05-03 21:03 25.35489 34.76474 38933 ft 520 kts 145°
2026-05-03 21:03 25.30351 34.82083 38931 ft 520 kts 144°
2026-05-03 21:04 25.25224 34.87712 38931 ft 520 kts 144°
2026-05-03 21:04 25.20087 34.93320 38929 ft 520 kts 145°
2026-05-03 21:05 25.14952 34.98898 38926 ft 518 kts 145°
2026-05-03 21:05 25.09823 35.04460 38923 ft 518 kts 145°
2026-05-03 21:06 25.04654 35.10061 38922 ft 518 kts 145°
2026-05-03 21:06 24.99510 35.15602 38919 ft 517 kts 145°
2026-05-03 21:07 24.94374 35.21101 38916 ft 516 kts 145°
2026-05-03 21:07 24.89234 35.26600 38914 ft 516 kts 145°
2026-05-03 21:08 24.84096 35.32092 38911 ft 516 kts 145°
2026-05-03 21:08 24.78964 35.37574 38908 ft 514 kts 144°
2026-05-03 21:09 24.73860 35.43062 38906 ft 514 kts 144°
2026-05-03 21:09 24.68711 35.48574 38903 ft 514 kts 144°
2026-05-03 21:10 24.63601 35.54030 38900 ft 512 kts 144°
2026-05-03 21:10 24.58495 35.59472 38897 ft 512 kts 144°
2026-05-03 21:11 24.53390 35.64904 38895 ft 511 kts 144°
2026-05-03 21:11 24.48297 35.70317 38892 ft 510 kts 144°
2026-05-03 21:12 24.43204 35.75725 38890 ft 510 kts 144°
2026-05-03 21:12 24.38082 35.81155 38886 ft 509 kts 144°
2026-05-03 21:13 24.32999 35.86539 38883 ft 509 kts 144°
2026-05-03 21:13 24.27917 35.91914 38880 ft 509 kts 144°
2026-05-03 21:14 24.22837 35.97282 38877 ft 508 kts 144°
2026-05-03 21:14 24.17763 36.02636 38874 ft 507 kts 144°
2026-05-03 21:15 24.12691 36.07983 38868 ft 507 kts 144°
2026-05-03 21:15 24.07580 36.13365 38863 ft 507 kts 144°
2026-05-03 21:16 24.02498 36.18709 38860 ft 507 kts 144°
2026-05-03 21:16 23.97415 36.24049 38850 ft 507 kts 144°
2026-05-03 21:17 23.93193 36.28479 38846 ft 507 kts 144°
2026-05-03 21:17 23.87253 36.34705 38842 ft 507 kts 144°
2026-05-03 21:18 23.82169 36.40028 38839 ft 507 kts 144°
2026-05-03 21:18 23.77044 36.45386 38837 ft 508 kts 144°
2026-05-03 21:19 23.71942 36.50715 38823 ft 508 kts 144°
2026-05-03 21:19 23.66844 36.56034 38820 ft 508 kts 144°
2026-05-03 21:20 23.61740 36.61352 38819 ft 508 kts 144°
2026-05-03 21:20 23.56635 36.66667 38818 ft 508 kts 144°
2026-05-03 21:21 23.51497 36.72009 38817 ft 508 kts 144°
2026-05-03 21:21 23.46390 36.77313 38817 ft 509 kts 143°
2026-05-03 21:22 23.41269 36.82624 38816 ft 509 kts 143°
2026-05-03 21:22 23.36147 36.87932 38815 ft 509 kts 143°
2026-05-03 21:23 23.31027 36.93232 38814 ft 509 kts 143°
2026-05-03 21:23 23.25907 36.98526 38814 ft 509 kts 143°
2026-05-03 21:24 23.20785 37.03815 38815 ft 509 kts 143°
2026-05-03 21:24 23.15630 37.09143 38814 ft 509 kts 143°
2026-05-03 21:25 23.10507 37.14425 38814 ft 509 kts 143°
2026-05-03 21:25 23.05382 37.19701 38815 ft 508 kts 143°
2026-05-03 21:26 23.00254 37.24971 38815 ft 508 kts 143°
2026-05-03 21:26 22.95134 37.30238 38816 ft 508 kts 143°
2026-05-03 21:27 22.90010 37.35505 38816 ft 508 kts 143°
2026-05-03 21:27 22.84846 37.40790 38817 ft 507 kts 143°
2026-05-03 21:28 22.79721 37.46028 38819 ft 507 kts 143°
2026-05-03 21:28 22.74604 37.51256 38819 ft 507 kts 142°
2026-05-03 21:29 22.70015 37.57106 38823 ft 514 kts 133°
2026-05-03 21:29 22.65906 37.63452 38822 ft 517 kts 130°
2026-05-03 21:30 22.61792 37.69822 38823 ft 517 kts 131°
2026-05-03 21:30 22.57644 37.76153 38824 ft 516 kts 131°
2026-05-03 21:31 22.53472 37.82497 38825 ft 515 kts 131°
2026-05-03 21:31 22.49344 37.88804 38826 ft 515 kts 131°
2026-05-03 21:32 22.45902 37.94045 38826 ft 514 kts 130°
2026-05-03 21:32 22.41774 38.00332 38827 ft 513 kts 131°
2026-05-03 21:33 22.36935 38.07650 38830 ft 513 kts 131°
2026-05-03 21:33 22.33458 38.12899 38852 ft 513 kts 131°
2026-05-03 21:34 22.29048 38.18866 38850 ft 502 kts 145°
2026-05-03 21:34 22.26191 38.20911 38857 ft 488 kts 159°
2026-05-03 21:34 22.23105 38.22393 38855 ft 486 kts 164°
2026-05-03 21:35 22.16698 38.24580 38853 ft 481 kts 171°
2026-05-03 21:35 22.10222 38.26243 38852 ft 478 kts 172°
2026-05-03 21:36 22.03755 38.27871 38852 ft 478 kts 172°
2026-05-03 21:36 21.97249 38.29541 38851 ft 478 kts 172°
2026-05-03 21:37 21.90786 38.31217 38851 ft 478 kts 171°
2026-05-03 21:37 21.84328 38.32896 38851 ft 479 kts 172°
2026-05-03 21:38 21.77856 38.34577 38851 ft 479 kts 172°
2026-05-03 21:38 21.71381 38.36256 38851 ft 479 kts 171°
2026-05-03 21:39 21.64904 38.37935 38874 ft 479 kts 171°
2026-05-03 21:39 21.58381 38.39623 38881 ft 480 kts 171°
2026-05-03 21:40 21.51901 38.41300 38883 ft 480 kts 171°
2026-05-03 21:40 21.45406 38.42978 38873 ft 481 kts 171°
2026-05-03 21:41 21.38902 38.44657 38860 ft 481 kts 171°
2026-05-03 21:41 21.32396 38.46335 38861 ft 482 kts 171°
2026-05-03 21:42 21.25883 38.48014 38863 ft 483 kts 171°
2026-05-03 21:42 21.19317 38.49704 38864 ft 483 kts 171°
2026-05-03 21:43 21.12787 38.51384 38866 ft 483 kts 171°
2026-05-03 21:43 21.06251 38.53064 38868 ft 484 kts 171°
2026-05-03 21:44 20.99708 38.54744 38871 ft 485 kts 171°
2026-05-03 21:44 20.93157 38.56424 38874 ft 485 kts 171°
2026-05-03 21:45 20.86609 38.58103 38944 ft 485 kts 171°
2026-05-03 21:45 20.83333 38.58942 39069 ft 485 kts 171°
2026-05-03 21:45 20.80010 38.59792 39195 ft 485 kts 171°
2026-05-03 21:46 20.76731 38.60632 39320 ft 485 kts 171°
2026-05-03 21:46 20.73453 38.61470 39445 ft 485 kts 171°
2026-05-03 21:46 20.70178 38.62307 39570 ft 484 kts 171°
2026-05-03 21:46 20.66909 38.63143 39694 ft 484 kts 171°
2026-05-03 21:47 20.63636 38.63979 39819 ft 484 kts 170°
2026-05-03 21:47 20.60364 38.64814 39881 ft 484 kts 170°
2026-05-03 21:47 20.53827 38.66482 39896 ft 484 kts 170°
2026-05-03 21:48 20.47282 38.68151 39901 ft 484 kts 170°
2026-05-03 21:48 20.40734 38.69819 39907 ft 484 kts 170°
2026-05-03 21:49 20.34144 38.71496 39912 ft 485 kts 170°
2026-05-03 21:49 20.27596 38.73161 39877 ft 485 kts 170°
2026-05-03 21:50 20.21038 38.74827 39871 ft 485 kts 170°
2026-05-03 21:50 20.14489 38.76490 39873 ft 485 kts 170°
2026-05-03 21:51 20.07936 38.78151 39875 ft 485 kts 170°
2026-05-03 21:51 20.01333 38.79508 39886 ft 484 kts 174°
2026-05-03 21:52 19.94699 38.80617 39923 ft 484 kts 174°
2026-05-03 21:52 19.88021 38.81768 39932 ft 484 kts 174°
2026-05-03 21:53 19.81377 38.82928 39939 ft 484 kts 174°
2026-05-03 21:53 19.74746 38.84091 39946 ft 484 kts 174°
2026-05-03 21:54 19.68113 38.85254 39952 ft 484 kts 174°
2026-05-03 21:54 19.61493 38.86414 39959 ft 484 kts 174°
2026-05-03 21:55 19.54816 38.87584 39966 ft 484 kts 173°
2026-05-03 21:55 19.48182 38.88745 39973 ft 484 kts 173°
2026-05-03 21:56 19.41551 38.89906 39980 ft 484 kts 173°
2026-05-03 21:56 19.34927 38.91065 39987 ft 484 kts 173°
2026-05-03 21:57 19.28298 38.92221 39995 ft 484 kts 173°
2026-05-03 21:57 19.21668 38.93377 40002 ft 484 kts 173°
2026-05-03 21:58 19.15027 38.94534 40010 ft 484 kts 173°
2026-05-03 21:58 19.08310 38.95055 40019 ft 481 kts 183°
2026-05-03 21:59 19.01643 38.94721 40023 ft 479 kts 186°
2026-05-03 21:59 18.95006 38.94278 40030 ft 479 kts 186°
2026-05-03 22:00 18.88364 38.93889 40036 ft 479 kts 185°
2026-05-03 22:00 18.81713 38.93517 40043 ft 479 kts 185°
2026-05-03 22:01 18.75014 38.93147 40049 ft 479 kts 185°
2026-05-03 22:01 18.68366 38.92781 40055 ft 479 kts 185°
2026-05-03 22:02 18.61723 38.92416 40061 ft 479 kts 185°
2026-05-03 22:02 18.55077 38.92052 40066 ft 479 kts 185°
2026-05-03 22:03 18.48430 38.91687 40072 ft 479 kts 185°
2026-05-03 22:03 18.41785 38.91323 40077 ft 479 kts 185°
2026-05-03 22:04 18.35136 38.90960 40084 ft 479 kts 185°
2026-05-03 22:04 18.28446 38.90595 40179 ft 479 kts 185°
2026-05-03 22:05 18.21798 38.90232 40218 ft 480 kts 185°
2026-05-03 22:05 18.15145 38.89883 40106 ft 480 kts 184°
2026-05-03 22:06 18.08483 38.89661 40047 ft 479 kts 184°
2026-05-03 22:06 18.01829 38.89433 40042 ft 480 kts 184°
2026-05-03 22:07 17.95167 38.89199 40044 ft 480 kts 184°
2026-05-03 22:07 17.88449 38.88962 40043 ft 481 kts 184°
2026-05-03 22:08 17.81771 38.88726 40041 ft 481 kts 184°
2026-05-03 22:08 17.75105 38.88489 40040 ft 480 kts 184°
2026-05-03 22:09 17.68428 38.88252 40038 ft 480 kts 184°
2026-05-03 22:10 17.58417 38.87899 40097 ft 480 kts 184°
2026-05-03 22:10 17.51747 38.87663 40099 ft 480 kts 184°
2026-05-03 22:11 17.45075 38.87428 40099 ft 480 kts 184°
2026-05-03 22:11 17.38364 38.87171 40098 ft 481 kts 184°
2026-05-03 22:12 17.31684 38.86901 40098 ft 481 kts 184°
2026-05-03 22:12 17.25004 38.86632 40097 ft 481 kts 184°
2026-05-03 22:13 17.18328 38.86365 40097 ft 481 kts 184°
2026-05-03 22:13 17.11649 38.86097 40097 ft 481 kts 184°
2026-05-03 22:14 17.04987 38.85829 40096 ft 481 kts 184°
2026-05-03 22:14 16.98258 38.85560 40096 ft 481 kts 184°
2026-05-03 22:15 16.91580 38.85292 40096 ft 481 kts 184°
2026-05-03 22:15 16.84904 38.85025 40022 ft 481 kts 184°
2026-05-03 22:16 16.78226 38.84758 39927 ft 481 kts 184°
2026-05-03 22:16 16.71541 38.84491 39919 ft 481 kts 184°
2026-05-03 22:17 16.64868 38.84225 39919 ft 481 kts 184°
2026-05-03 22:17 16.58191 38.83958 39921 ft 481 kts 184°
2026-05-03 22:18 16.51473 38.83690 39922 ft 481 kts 184°
2026-05-03 22:18 16.44796 38.83425 39924 ft 481 kts 184°
2026-05-03 22:19 16.38123 38.83159 39925 ft 481 kts 184°
2026-05-03 22:19 16.31454 38.82894 39927 ft 481 kts 184°
2026-05-03 22:20 16.24778 38.82686 39929 ft 481 kts 184°
2026-05-03 22:20 16.18093 38.82482 39930 ft 482 kts 184°
2026-05-03 22:21 16.11401 38.82275 39932 ft 481 kts 184°
2026-05-03 22:21 16.04672 38.82067 39934 ft 482 kts 184°
2026-05-03 22:22 15.97987 38.81860 39936 ft 482 kts 184°
2026-05-03 22:22 15.91289 38.81652 39938 ft 482 kts 183°
2026-05-03 22:23 15.84592 38.81444 39940 ft 482 kts 183°
2026-05-03 22:23 15.77895 38.81236 39942 ft 482 kts 183°
2026-05-03 22:24 15.71192 38.81029 39944 ft 483 kts 183°
2026-05-03 22:24 15.64442 38.80820 39946 ft 483 kts 183°
2026-05-03 22:25 15.57744 38.80613 39948 ft 482 kts 183°
2026-05-03 22:25 15.52179 38.80441 39951 ft 482 kts 183°
2026-05-03 22:26 15.45477 38.80234 39953 ft 483 kts 183°
2026-05-03 22:26 15.37638 38.79992 39956 ft 483 kts 183°
2026-05-03 22:27 15.32015 38.79819 39958 ft 483 kts 183°
2026-05-03 22:27 15.25309 38.79659 39961 ft 483 kts 181°
2026-05-03 22:28 15.18591 38.79686 39963 ft 484 kts 181°
2026-05-03 22:28 15.11874 38.79698 39965 ft 484 kts 181°
2026-05-03 22:29 15.05152 38.79699 39969 ft 484 kts 181°
2026-05-03 22:29 14.98425 38.79697 39972 ft 484 kts 181°
2026-05-03 22:30 14.91657 38.79693 39974 ft 484 kts 181°
2026-05-03 22:30 14.84929 38.79690 39977 ft 484 kts 181°
2026-05-03 22:31 14.78199 38.79686 39981 ft 484 kts 181°
2026-05-03 22:31 14.71466 38.79682 39983 ft 485 kts 181°
2026-05-03 22:32 14.64724 38.79679 39987 ft 485 kts 181°
2026-05-03 22:32 14.57982 38.79675 39989 ft 485 kts 181°
2026-05-03 22:33 14.51246 38.79672 39993 ft 485 kts 181°
2026-05-03 22:33 14.44499 38.79620 39997 ft 485 kts 181°
2026-05-03 22:34 14.37767 38.79544 40000 ft 485 kts 181°
2026-05-03 22:34 14.30979 38.79472 40004 ft 485 kts 181°
2026-05-03 22:35 14.24256 38.79402 40008 ft 486 kts 181°
2026-05-03 22:35 14.17493 38.79332 40011 ft 486 kts 181°
2026-05-03 22:36 14.10742 38.79262 40015 ft 486 kts 181°
2026-05-03 22:36 14.03993 38.79192 40019 ft 486 kts 181°
2026-05-03 22:37 13.97258 38.79076 40024 ft 486 kts 181°
2026-05-03 22:37 13.90450 38.78953 40027 ft 486 kts 181°
2026-05-03 22:38 13.83697 38.78834 40031 ft 486 kts 181°
2026-05-03 22:38 13.76949 38.78715 40036 ft 486 kts 181°
2026-05-03 22:39 13.70205 38.78596 40041 ft 486 kts 181°
2026-05-03 22:39 13.63459 38.78477 40044 ft 485 kts 181°
2026-05-03 22:40 13.56730 38.78359 40049 ft 485 kts 181°
2026-05-03 22:40 13.49951 38.78240 40078 ft 484 kts 181°
2026-05-03 22:41 13.43228 38.78121 40137 ft 485 kts 181°
2026-05-03 22:41 13.36485 38.78003 40146 ft 486 kts 181°
2026-05-03 22:42 13.29743 38.77885 40153 ft 485 kts 181°
2026-05-03 22:42 13.23002 38.77767 40160 ft 485 kts 181°
2026-05-03 22:43 13.16276 38.77649 40167 ft 484 kts 181°
2026-05-03 22:43 13.09552 38.77531 40173 ft 484 kts 181°
2026-05-03 22:44 13.02777 38.77412 40181 ft 484 kts 180°
2026-05-03 22:44 12.96055 38.77295 40187 ft 484 kts 180°
2026-05-03 22:45 12.89324 38.77150 40194 ft 484 kts 181°
2026-05-03 22:45 12.82593 38.76956 40202 ft 484 kts 181°
2026-05-03 22:46 12.75878 38.76769 40209 ft 484 kts 181°
2026-05-03 22:46 12.69158 38.76582 40216 ft 484 kts 181°
2026-05-03 22:47 12.62405 38.76396 40223 ft 484 kts 181°
2026-05-03 22:47 12.55700 38.76210 40248 ft 484 kts 181°
2026-05-03 22:48 12.48975 38.76025 40256 ft 484 kts 181°
2026-05-03 22:48 12.42241 38.75839 40263 ft 484 kts 181°
2026-05-03 22:49 12.35470 38.75653 40271 ft 484 kts 181°
2026-05-03 22:49 12.28753 38.75468 40278 ft 484 kts 180°
2026-05-03 22:50 12.22042 38.75285 40285 ft 484 kts 180°
2026-05-03 22:50 12.15316 38.75102 40293 ft 484 kts 180°
2026-05-03 22:51 12.08597 38.74919 40300 ft 484 kts 180°
2026-05-03 22:51 12.01876 38.74735 40307 ft 484 kts 180°
2026-05-03 22:52 11.95156 38.74552 40314 ft 484 kts 180°
2026-05-03 22:52 11.88399 38.74368 40321 ft 483 kts 180°
2026-05-03 22:53 11.81690 38.74185 40330 ft 483 kts 180°
2026-05-03 22:53 11.74928 38.74001 40337 ft 483 kts 180°
2026-05-03 22:54 11.68215 38.73818 40343 ft 483 kts 180°
2026-05-03 22:54 11.61502 38.73636 40348 ft 483 kts 180°
2026-05-03 22:55 11.54791 38.73454 40325 ft 484 kts 180°
2026-05-03 22:55 11.48081 38.73271 40296 ft 483 kts 180°
2026-05-03 22:56 11.41376 38.73089 40302 ft 483 kts 180°
2026-05-03 22:56 11.34659 38.72908 40309 ft 483 kts 180°
2026-05-03 22:57 11.27948 38.72726 40317 ft 483 kts 180°
2026-05-03 22:57 11.21201 38.72543 40324 ft 483 kts 180°
2026-05-03 22:58 11.14492 38.72362 40332 ft 483 kts 180°
2026-05-03 22:58 11.07781 38.72180 40339 ft 483 kts 180°
2026-05-03 22:59 11.01083 38.71999 40347 ft 482 kts 180°
2026-05-03 22:59 10.94335 38.71816 40355 ft 482 kts 180°
2026-05-03 23:00 10.87639 38.71635 40362 ft 482 kts 180°
2026-05-03 23:00 10.80942 38.71455 40370 ft 482 kts 180°
2026-05-03 23:01 10.74241 38.71273 40377 ft 482 kts 180°
2026-05-03 23:01 10.67537 38.71092 40385 ft 483 kts 180°
2026-05-03 23:02 10.61005 38.70915 40392 ft 483 kts 180°
2026-05-03 23:02 10.54116 38.70728 40399 ft 483 kts 180°
2026-05-03 23:03 10.47369 38.70546 40406 ft 483 kts 180°
2026-05-03 23:03 10.40701 38.70365 40413 ft 483 kts 180°
2026-05-03 23:04 10.33956 38.70183 40420 ft 483 kts 180°
2026-05-03 23:04 10.27257 38.70001 40426 ft 482 kts 180°
2026-05-03 23:05 10.20553 38.69820 40433 ft 482 kts 180°
2026-05-03 23:05 10.13850 38.69639 40439 ft 482 kts 180°
2026-05-03 23:06 10.07149 38.69458 40445 ft 482 kts 180°
2026-05-03 23:06 10.00451 38.69277 40450 ft 482 kts 180°
2026-05-03 23:07 9.93702 38.69095 40456 ft 483 kts 181°
2026-05-03 23:07 9.86990 38.68914 40461 ft 483 kts 181°
2026-05-03 23:08 9.80280 38.68733 40466 ft 483 kts 181°
2026-05-03 23:08 9.73572 38.68552 40470 ft 483 kts 181°
2026-05-03 23:09 9.66858 38.68372 40474 ft 483 kts 181°
2026-05-03 23:09 9.60146 38.68191 40478 ft 483 kts 181°
2026-05-03 23:10 9.53413 38.68010 40481 ft 483 kts 181°
2026-05-03 23:10 9.46704 38.67829 40484 ft 483 kts 181°
2026-05-03 23:11 9.39947 38.67647 40487 ft 483 kts 181°
2026-05-03 23:11 9.33233 38.67467 40489 ft 484 kts 181°
2026-05-03 23:12 9.26510 38.67286 40491 ft 484 kts 181°
2026-05-03 23:12 9.19788 38.67105 40493 ft 484 kts 181°
2026-05-03 23:13 9.13068 38.66868 40490 ft 484 kts 185°
2026-05-03 23:13 9.06447 38.65654 40496 ft 485 kts 192°
2026-05-03 23:14 8.99869 38.63938 40495 ft 486 kts 193°
2026-05-03 23:14 8.93333 38.62251 40495 ft 486 kts 193°
2026-05-03 23:15 8.86791 38.60599 40495 ft 486 kts 193°
2026-05-03 23:15 8.81349 38.59234 40495 ft 485 kts 193°
2026-05-03 23:16 8.73691 38.57315 40494 ft 485 kts 193°
2026-05-03 23:16 8.67141 38.55676 40493 ft 485 kts 193°
2026-05-03 23:17 8.60597 38.54039 40492 ft 485 kts 193°
2026-05-03 23:17 8.55115 38.52669 40491 ft 485 kts 193°
2026-05-03 23:18 8.48564 38.51031 40489 ft 486 kts 193°
2026-05-03 23:18 8.42016 38.49396 40488 ft 486 kts 193°
2026-05-03 23:19 8.35467 38.47761 40485 ft 486 kts 193°
2026-05-03 23:19 8.28921 38.46128 40483 ft 485 kts 193°
2026-05-03 23:20 8.22329 38.44484 40480 ft 485 kts 193°
2026-05-03 23:20 8.15783 38.42854 40477 ft 485 kts 193°
2026-05-03 23:21 8.09239 38.41226 40474 ft 485 kts 193°
2026-05-03 23:21 8.02693 38.39598 40471 ft 485 kts 193°
2026-05-03 23:22 7.92876 38.37157 40465 ft 485 kts 193°
2026-05-03 23:22 7.86313 38.35525 40461 ft 485 kts 193°
2026-05-03 23:23 7.79769 38.33896 40456 ft 485 kts 193°
2026-05-03 23:23 7.73211 38.32265 40451 ft 486 kts 193°
2026-05-03 23:24 7.66617 38.30628 40446 ft 486 kts 193°
2026-05-03 23:24 7.60058 38.28999 40441 ft 486 kts 193°
2026-05-03 23:25 7.53502 38.27372 40435 ft 486 kts 193°
2026-05-03 23:25 7.46945 38.25694 40429 ft 487 kts 194°
2026-05-03 23:26 7.40410 38.23899 40423 ft 488 kts 194°
2026-05-03 23:26 7.33871 38.22116 40416 ft 488 kts 194°
2026-05-03 23:27 7.27273 38.20323 40409 ft 489 kts 194°
2026-05-03 23:27 7.20705 38.18541 40402 ft 490 kts 194°
2026-05-03 23:28 7.14134 38.16757 40394 ft 490 kts 194°
2026-05-03 23:28 7.07548 38.14970 40386 ft 491 kts 194°
2026-05-03 23:29 7.00960 38.13184 40378 ft 492 kts 194°
2026-05-03 23:29 6.94354 38.11393 40370 ft 492 kts 194°
2026-05-03 23:30 6.87701 38.09591 40361 ft 493 kts 193°
2026-05-03 23:30 6.81083 38.07796 40353 ft 494 kts 193°
2026-05-03 23:31 6.74452 38.06001 40344 ft 494 kts 193°
2026-05-03 23:31 6.67812 38.04204 40334 ft 495 kts 193°
2026-05-03 23:32 6.61169 38.02407 40325 ft 496 kts 193°
2026-05-03 23:32 6.54519 38.00605 40315 ft 496 kts 193°
2026-05-03 23:33 6.47860 37.98792 40306 ft 496 kts 193°
2026-05-03 23:33 6.41163 37.96968 40296 ft 497 kts 193°
2026-05-03 23:34 6.34472 37.95255 40286 ft 497 kts 191°
2026-05-03 23:34 6.27748 37.93718 40276 ft 497 kts 191°
2026-05-03 23:35 6.21019 37.92186 40266 ft 497 kts 191°
2026-05-03 23:35 6.14282 37.90649 40255 ft 497 kts 191°
2026-05-03 23:36 6.07545 37.89112 40245 ft 497 kts 191°
2026-05-03 23:36 6.00760 37.87564 40235 ft 498 kts 191°
2026-05-03 23:37 5.94016 37.86026 40225 ft 498 kts 191°
2026-05-03 23:37 5.87274 37.84488 40214 ft 498 kts 191°
2026-05-03 23:38 5.80491 37.82941 40204 ft 498 kts 191°
2026-05-03 23:38 5.73744 37.81403 40194 ft 498 kts 191°
2026-05-03 23:39 5.67005 37.79868 40184 ft 497 kts 191°
2026-05-03 23:39 5.60268 37.78333 40174 ft 497 kts 191°
2026-05-03 23:40 5.53535 37.76799 40165 ft 497 kts 191°
2026-05-03 23:40 5.46802 37.75265 40155 ft 497 kts 191°
2026-05-03 23:41 5.40029 37.73723 40146 ft 497 kts 191°
2026-05-03 23:41 5.33297 37.72191 40137 ft 496 kts 191°
2026-05-03 23:42 5.26577 37.70661 40128 ft 496 kts 191°
2026-05-03 23:42 5.19857 37.69132 40119 ft 496 kts 191°
2026-05-03 23:43 5.13144 37.67605 40110 ft 495 kts 191°
2026-05-03 23:43 5.06434 37.66079 40102 ft 495 kts 191°
2026-05-03 23:44 4.99684 37.64544 40094 ft 495 kts 191°
2026-05-03 23:44 4.92971 37.63018 40086 ft 495 kts 191°
2026-05-03 23:45 4.86267 37.61494 40079 ft 495 kts 191°
2026-05-03 23:45 4.79572 37.59973 40071 ft 494 kts 191°
2026-05-03 23:46 4.72869 37.58450 40064 ft 494 kts 191°
2026-05-03 23:46 4.66175 37.56929 40057 ft 494 kts 191°
2026-05-03 23:47 4.59436 37.55398 40051 ft 494 kts 191°
2026-05-03 23:47 4.52740 37.53878 40050 ft 494 kts 191°
2026-05-03 23:48 4.46052 37.52359 40044 ft 494 kts 191°
2026-05-03 23:48 4.39360 37.50840 40038 ft 494 kts 191°
2026-05-03 23:49 4.32669 37.49321 40032 ft 494 kts 191°
2026-05-03 23:49 4.25983 37.47802 40027 ft 494 kts 191°
2026-05-03 23:50 4.20375 37.46529 40023 ft 494 kts 191°
2026-05-03 23:50 4.12558 37.44755 40017 ft 494 kts 191°
2026-05-03 23:51 4.05870 37.43237 40013 ft 494 kts 191°
2026-05-03 23:51 3.99184 37.41707 40008 ft 494 kts 192°
2026-05-03 23:52 3.92581 37.39826 40004 ft 494 kts 195°
2026-05-03 23:52 3.86005 37.37830 40000 ft 495 kts 195°
2026-05-03 23:53 3.79421 37.35864 39996 ft 495 kts 195°
2026-05-03 23:53 3.72785 37.33896 39993 ft 495 kts 195°
2026-05-03 23:54 3.66190 37.31945 39989 ft 495 kts 195°
2026-05-03 23:54 3.59594 37.29995 39986 ft 495 kts 195°
2026-05-03 23:55 3.52996 37.28046 39983 ft 495 kts 195°
2026-05-03 23:55 3.46406 37.26100 39981 ft 495 kts 194°
2026-05-03 23:56 3.39806 37.24151 39978 ft 495 kts 194°
2026-05-03 23:56 3.33204 37.22203 39976 ft 495 kts 195°
2026-05-03 23:57 3.26562 37.20242 39973 ft 495 kts 195°
2026-05-03 23:57 3.19962 37.18295 39972 ft 495 kts 194°
2026-05-03 23:58 3.13362 37.16348 39971 ft 496 kts 194°
2026-05-03 23:58 3.06758 37.14399 40019 ft 495 kts 194°
2026-05-03 23:59 3.00152 37.12451 40039 ft 496 kts 194°
2026-05-03 23:59 2.93554 37.10505 40040 ft 496 kts 194°
2026-05-04 00:00 2.86904 37.08544 40041 ft 495 kts 194°
2026-05-04 00:00 2.80298 37.06596 40043 ft 495 kts 194°
2026-05-04 00:01 2.73702 37.04652 40054 ft 495 kts 194°
2026-05-04 00:01 2.67097 37.02704 40057 ft 495 kts 194°
2026-05-04 00:02 2.60493 37.00758 40060 ft 496 kts 194°
2026-05-04 00:02 2.53890 36.98812 40063 ft 495 kts 194°
2026-05-04 00:03 2.47245 36.96854 40067 ft 495 kts 194°
2026-05-04 00:03 2.40644 36.94909 40072 ft 495 kts 194°
2026-05-04 00:04 2.34046 36.92965 40077 ft 495 kts 194°
2026-05-04 00:04 2.27449 36.91021 40090 ft 495 kts 194°
2026-05-04 00:05 2.20857 36.89080 40106 ft 495 kts 194°
2026-05-04 00:05 2.14264 36.87138 40114 ft 494 kts 194°
2026-05-04 00:06 2.07633 36.85185 40122 ft 494 kts 194°
2026-05-04 00:06 2.01050 36.83246 40130 ft 494 kts 194°
2026-05-04 00:07 1.95603 36.81641 40137 ft 496 kts 194°
2026-05-04 00:07 1.88944 36.79681 40154 ft 499 kts 194°
2026-05-04 00:08 1.81180 36.77395 40165 ft 498 kts 193°
2026-05-04 00:08 1.74546 36.75442 40175 ft 498 kts 193°
2026-05-04 00:09 1.68991 36.73807 40184 ft 498 kts 193°
2026-05-04 00:09 1.62354 36.71853 40194 ft 498 kts 193°
2026-05-04 00:10 1.55723 36.69902 40204 ft 498 kts 193°
2026-05-04 00:10 1.49085 36.67948 40215 ft 498 kts 193°
2026-05-04 00:11 1.42404 36.65982 40225 ft 498 kts 193°
2026-05-04 00:11 1.35759 36.64026 40235 ft 498 kts 193°
2026-05-04 00:12 1.29112 36.62070 40244 ft 499 kts 193°
2026-05-04 00:12 1.22464 36.60113 40253 ft 499 kts 193°
2026-05-04 00:13 1.15816 36.58157 40262 ft 499 kts 193°
2026-05-04 00:13 1.09161 36.56199 40270 ft 499 kts 193°
2026-05-04 00:14 1.02502 36.54251 40275 ft 499 kts 191°
2026-05-04 00:14 0.95613 36.53580 40285 ft 494 kts 177°
2026-05-04 00:15 0.88770 36.53778 40292 ft 492 kts 173°
2026-05-04 00:15 0.81958 36.54144 40297 ft 491 kts 174°
2026-05-04 00:16 0.75139 36.54468 40301 ft 491 kts 174°
2026-05-04 00:16 0.68312 36.54774 40306 ft 492 kts 174°
2026-05-04 00:17 0.61491 36.55074 40309 ft 492 kts 174°
2026-05-04 00:17 0.54618 36.55373 40312 ft 492 kts 174°
2026-05-04 00:18 0.47788 36.55670 40321 ft 492 kts 174°
2026-05-04 00:18 0.40963 36.55966 40323 ft 492 kts 174°
2026-05-04 00:19 0.34128 36.56262 40323 ft 492 kts 174°
2026-05-04 00:19 0.27302 36.56558 40319 ft 492 kts 174°
2026-05-04 00:20 0.20467 36.56854 40317 ft 492 kts 174°
2026-05-04 00:20 0.13632 36.57150 40316 ft 493 kts 174°
2026-05-04 00:21 0.06747 36.57449 40316 ft 493 kts 174°
2026-05-04 00:21 -0.00087 36.57745 40316 ft 492 kts 174°
2026-05-04 00:22 -0.06897 36.58040 40181 ft 484 kts 173°
2026-05-04 00:22 -0.10223 36.58184 39722 ft 477 kts 173°
2026-05-04 00:22 -0.13540 36.58328 38924 ft 479 kts 174°
2026-05-04 00:23 -0.16879 36.58473 37915 ft 484 kts 174°
2026-05-04 00:23 -0.20254 36.58619 36997 ft 489 kts 174°
2026-05-04 00:23 -0.23665 36.58767 36141 ft 492 kts 174°
2026-05-04 00:23 -0.27082 36.58915 35320 ft 493 kts 174°
2026-05-04 00:24 -0.30520 36.59064 34479 ft 496 kts 174°
2026-05-04 00:24 -0.34020 36.59216 33588 ft 500 kts 175°
2026-05-04 00:24 -0.37498 36.59366 32683 ft 501 kts 175°
2026-05-04 00:24 -0.40979 36.59517 31748 ft 503 kts 175°
2026-05-04 00:25 -0.44478 36.59669 30772 ft 504 kts 175°
2026-05-04 00:25 -0.47978 36.59820 29759 ft 506 kts 175°
2026-05-04 00:25 -0.51495 36.59973 28704 ft 507 kts 175°
2026-05-04 00:25 -0.55019 36.60125 27599 ft 509 kts 175°
2026-05-04 00:26 -0.58547 36.60278 26655 ft 506 kts 175°
2026-05-04 00:26 -0.62044 36.60430 25779 ft 501 kts 175°
2026-05-04 00:26 -0.65500 36.60579 24925 ft 495 kts 176°
2026-05-04 00:26 -0.68918 36.60728 24089 ft 489 kts 176°
2026-05-04 00:27 -0.72338 36.60876 23251 ft 484 kts 176°
2026-05-04 00:27 -0.75676 36.61020 22433 ft 478 kts 176°
2026-05-04 00:27 -0.78977 36.61163 21619 ft 473 kts 176°
2026-05-04 00:27 -0.82232 36.61305 20809 ft 467 kts 176°
2026-05-04 00:28 -0.85459 36.61444 20002 ft 462 kts 176°
2026-05-04 00:28 -0.88646 36.61582 19203 ft 457 kts 176°
2026-05-04 00:28 -0.91799 36.61719 18406 ft 451 kts 176°
2026-05-04 00:28 -0.94913 36.61853 17610 ft 446 kts 176°
2026-05-04 00:29 -0.97993 36.61987 16801 ft 442 kts 176°
2026-05-04 00:29 -1.01047 36.62120 15993 ft 437 kts 176°
2026-05-04 00:29 -1.04065 36.62251 15200 ft 433 kts 176°
2026-05-04 00:29 -1.07058 36.62381 14457 ft 428 kts 176°
2026-05-04 00:30 -1.10016 36.62509 14183 ft 411 kts 176°
2026-05-04 00:30 -1.12799 36.62629 14060 ft 393 kts 176°
2026-05-04 00:30 -1.15476 36.62744 13887 ft 378 kts 176°
2026-05-04 00:30 -1.18046 36.62857 13716 ft 364 kts 176°
2026-05-04 00:31 -1.20525 36.62965 13550 ft 350 kts 176°
2026-05-04 00:31 -1.22914 36.63068 13391 ft 338 kts 176°
2026-05-04 00:31 -1.25219 36.63168 13238 ft 326 kts 176°
2026-05-04 00:31 -1.27442 36.63265 13089 ft 315 kts 176°
2026-05-04 00:32 -1.29568 36.63357 12936 ft 297 kts 176°
2026-05-04 00:32 -1.31567 36.63444 12799 ft 279 kts 176°
2026-05-04 00:32 -1.33466 36.63526 12677 ft 260 kts 176°
2026-05-04 00:32 -1.35218 36.63602 12540 ft 246 kts 176°
2026-05-04 00:33 -1.36920 36.63677 12256 ft 244 kts 174°
2026-05-04 00:33 -1.39679 36.65255 11558 ft 233 kts 127°
2026-05-04 00:33 -1.40477 36.66646 11118 ft 232 kts 117°
2026-05-04 00:34 -1.41071 36.68144 10636 ft 233 kts 110°
2026-05-04 00:34 -1.41536 36.69702 10264 ft 236 kts 107°
2026-05-04 00:34 -1.41955 36.71269 9949 ft 230 kts 107°
2026-05-04 00:34 -1.42381 36.72774 9628 ft 221 kts 107°
2026-05-04 00:35 -1.42808 36.74223 9299 ft 215 kts 108°
2026-05-04 00:35 -1.43208 36.75643 9022 ft 211 kts 101°
2026-05-04 00:35 -1.43070 36.77079 8757 ft 211 kts 75°
2026-05-04 00:35 -1.42416 36.78425 8491 ft 215 kts 63°
2026-05-04 00:36 -1.41569 36.79657 8209 ft 215 kts 57°
2026-05-04 00:36 -1.40658 36.80841 7923 ft 215 kts 55°
2026-05-04 00:36 -1.39761 36.82031 7637 ft 214 kts 56°
2026-05-04 00:36 -1.38879 36.83230 7354 ft 214 kts 56°
2026-05-04 00:37 -1.38005 36.84428 7070 ft 213 kts 56°
2026-05-04 00:37 -1.37143 36.85612 6817 ft 204 kts 56°
2026-05-04 00:37 -1.36354 36.86697 6547 ft 185 kts 56°
2026-05-04 00:37 -1.35634 36.87687 6312 ft 168 kts 55°
2026-05-04 00:38 -1.34965 36.88606 6090 ft 160 kts 55°
2026-05-04 00:38 -1.34314 36.89500 5875 ft 159 kts 55°
2026-05-04 00:38 -1.33649 36.90416 5684 ft 161 kts 55°
2026-05-04 00:38 -1.32997 36.91309 5479 ft 158 kts 54°
2026-05-04 00:39 -1.32367 36.92176 5343 ft 147 kts 53°
2026-05-04 00:39 -1.31875 36.92849 5342 ft 91 kts 53°
2026-05-04 00:39 -1.31614 36.93215 5342 ft 46 kts 50°
2026-05-04 00:39 -1.31442 36.93445 5342 ft 37 kts 54°
2026-05-04 00:40 -1.31296 36.93644 5342 ft 34 kts 54°
2026-05-04 00:40 -1.31199 36.93774 5342 ft 12 kts 53°
2026-05-04 00:40 -1.31191 36.93839 5342 ft 10 kts 126°
2026-05-04 00:40 -1.31243 36.93883 5342 ft 10 kts 143°
2026-05-04 00:41 -1.31295 36.93921 5342 ft 9 kts 144°
2026-05-04 00:41 -1.31345 36.93957 5342 ft 9 kts 144°
2026-05-04 00:41 -1.31391 36.93991 5342 ft 7 kts 143°
2026-05-04 00:41 -1.31435 36.93996 5342 ft 7 kts 205°
2026-05-04 00:42 -1.31482 36.93949 5342 ft 12 kts 233°
2026-05-04 00:42 -1.31538 36.93874 5342 ft 15 kts 234°
2026-05-04 00:42 -1.31615 36.93768 5342 ft 23 kts 234°
2026-05-04 00:42 -1.31713 36.93634 5342 ft 23 kts 234°
2026-05-04 00:43 -1.31802 36.93511 5342 ft 21 kts 234°
2026-05-04 00:43 -1.31885 36.93398 5342 ft 20 kts 234°
2026-05-04 00:43 -1.31973 36.93276 5342 ft 22 kts 234°
2026-05-04 00:43 -1.32060 36.93156 5342 ft 20 kts 233°
2026-05-04 00:44 -1.32141 36.93045 5342 ft 19 kts 234°
2026-05-04 00:44 -1.32222 36.92934 5342 ft 23 kts 234°
2026-05-04 00:44 -1.32317 36.92804 5342 ft 22 kts 234°
2026-05-04 00:44 -1.32401 36.92688 5342 ft 20 kts 234°
2026-05-04 00:45 -1.32480 36.92579 5342 ft 19 kts 234°
2026-05-04 00:45 -1.32556 36.92475 5342 ft 18 kts 234°
2026-05-04 00:45 -1.32634 36.92368 5342 ft 24 kts 234°
2026-05-04 00:45 -1.32728 36.92239 5342 ft 22 kts 234°
2026-05-04 00:46 -1.32813 36.92122 5342 ft 20 kts 234°
2026-05-04 00:46 -1.32893 36.92013 5342 ft 19 kts 234°
2026-05-04 00:46 -1.32969 36.91908 5342 ft 18 kts 234°
2026-05-04 00:46 -1.33040 36.91809 5342 ft 17 kts 234°
2026-05-04 00:47 -1.33105 36.91718 5342 ft 13 kts 234°
2026-05-04 00:47 -1.33151 36.91664 5342 ft 8 kts 222°
2026-05-04 00:47 -1.33185 36.91648 5342 ft 5 kts 173°
2026-05-04 00:47 -1.33216 36.91663 5342 ft 5 kts 145°
2026-05-04 00:48 -1.33242 36.91682 5342 ft 4 kts 144°
2026-05-04 00:48 -1.33264 36.91699 5342 ft 2 kts 144°
2026-05-04 00:48 -1.33268 36.91701 5342 ft 0 kts 144°